Regional Weather Roundup
Issued by NWS Boston, MA

Home | Current Version | Previous Version | Text Only | Print | Product List | Glossary On
Versions: 1 2 3 4 5 6 7 8 9 10 11 12 13 14 15 16 17 18 19 20 21 22 23 24 25 26 27 28 29 30 31 32 33 34 35 36 37 38 39 40 41 42 43 44 45 46 47 48 49 50
000
ASUS41 KBOX 300610
RWRBOX

REGIONAL WEATHER ROUNDUP
NATIONAL WEATHER SERVICE TAUNTON MA
200 AM EDT SAT AUG 30 2014

NOTE:  "FAIR" INDICATES FEW OR NO CLOUDS BELOW 12,000 FEET WITH NO
SIGNIFICANT WEATHER AND/OR OBSTRUCTIONS TO VISIBILITY.  THE FOLLOWING
OBSERVATION LOCATIONS DO NOT REPORT PRESENT WEATHER...PROVINCETOWN...
SMITHFIELD...BLOCK ISLAND...KEENE...AND OXFORD.

MAZALL-300700-
EASTERN MASSACHUSETTS

CITY           SKY/WX    TMP DP  RH WIND       PRES   REMARKS
BOSTON         FAIR      59  54  83 S6        30.30R
6HR MIN TEMP:  59; 6HR MAX TEMP:  63;

BEVERLY        FAIR      54  51  90 CALM      30.29R
LAWRENCE       FAIR      56  53  90 CALM      30.31R
BEDFORD        FAIR      53  51  93 CALM      30.28R
BLUE HILL        N/A     57  54  89 S10       30.29R
NORWOOD        FAIR      48  46  93 CALM      30.29R FOG
MARSHFIELD     FAIR      54  52  94 CALM      30.32R
PLYMOUTH       FAIR      50  47  89 CALM      30.31R
TAUNTON        FAIR      47  45  93 CALM      30.30R
NEW BEDFORD    FAIR      51  50  96 CALM      30.29R
$$

MAZALL-300700-
CAPE COD AND THE ISLANDS

CITY           SKY/WX    TMP DP  RH WIND       PRES   REMARKS
FALMOUTH       MOCLDY    48  48 100 CALM      30.30R
HYANNIS        FAIR      50  47  89 CALM      30.29R
CHATHAM        FAIR      53  51  93 S3        30.31R
PROVINCETOWN   FAIR      48  45  87 S5        30.30S
NANTUCKET      FAIR      55  46  71 CALM      30.30R
MARTHAS VNYRD  FAIR      44  42  93 CALM      30.30R
$$

MAZALL-300700-
CENTRAL AND WESTERN MASSACHUSETTS

CITY           SKY/WX    TMP DP  RH WIND       PRES   REMARKS
WORCESTER      FAIR      56  54  93 SW7       30.29S
6HR MIN TEMP:  56; 6HR MAX TEMP:  65;

FITCHBURG      FAIR      55  52  89 CALM      30.29S
ORANGE         FOG       52  51  97 CALM      30.28S VSB 3/4
SPRINGFIELD    FAIR      58  55  88 S5        30.27S
WESTFIELD      FAIR      56  53  90 CALM      30.27S
NORTH ADAMS    FAIR      54  52  93 SE5       30.27R
PITTSFIELD     FAIR      53  52  96 CALM      30.27R
$$

RIZALL-300700-
RHODE ISLAND

CITY           SKY/WX    TMP DP  RH WIND       PRES   REMARKS
PROVIDENCE     FAIR      59  56  89 W3        30.30R
6HR MIN TEMP:  58; 6HR MAX TEMP:  66;

NEWPORT        FAIR      57  54  89 CALM      30.29S
BLOCK ISLAND   FAIR      59  52  77 SE5       30.29S
SMITHFIELD     FAIR      52  46  82 CALM      30.29S
WESTERLY       FAIR      55  53  93 CALM      30.29S
$$

CTZALL-300700-
CONNECTICUT

CITY           SKY/WX    TMP DP  RH WIND       PRES   REMARKS
BRADLEY INTL   FAIR      59  54  83 S6        30.27R
6HR MIN TEMP:  58; 6HR MAX TEMP:  71;

HARTFORD       FAIR      58  54  86 CALM      30.28R
BRIDGEPORT     FAIR      67  58  72 S5        30.27S
DANBURY        FAIR      55  53  93 CALM      30.29S
GROTON         FAIR      55  54  96 NE3       30.28S
NEW HAVEN      FAIR      66  56  70 S7        30.27F
CHESTER        FAIR      59  55  88 CALM      30.29S
MERIDEN        FAIR      54  51  90 CALM      30.28S
WILLIMANTIC    FAIR      55  52  89 CALM      30.30R
OXFORD         FAIR      55  50  82 S5        30.29F
$$

MEZ002-015-021-024-NHZ003-005-008-011-012-014-VTZ005-008-300700-
NORTHERN NEW ENGLAND

CITY           SKY/WX    TMP DP  RH WIND       PRES   REMARKS
PORTLAND ME    FAIR      54  51  90 CALM      30.29R
6HR MIN TEMP:  54; 6HR MAX TEMP:  60;

BANGOR ME      FAIR      52  48  86 CALM      30.27R
CONCORD NH     FAIR      53  52  96 E3        30.28S
MANCHESTER NH  FAIR      57  53  86 S3        30.27S
NASHUA NH      FAIR      55  54  97 CALM      30.29S
PORTSMOUTH NH  MOCLDY    55  53  94 SW3       30.28R
JAFFREY NH     FAIR      56  53  90 CALM      30.30R
KEENE NH       FAIR      54  46  76 CALM      30.28S
BURLINGTON VT  FAIR      62  54  74 S9        30.19F
MT. WASHINGTON NOT AVBL
$$

NYZ052-076-300700-
EASTERN NEW YORK

CITY           SKY/WX    TMP DP  RH WIND       PRES   REMARKS
ALBANY         FAIR      63  55  75 S10       30.23S
6HR MIN TEMP:  62; 6HR MAX TEMP:  69;

NEW YORK CITY  FAIR      68  55  63 SE3       30.25S
6HR MIN TEMP:  68; 6HR MAX TEMP:  71;

$$

ANZALL-300700-
MARINE OBSERVATIONS

STATION/POSITION TIME  TEMP    WIND        PRES    VSBY  WAVE
                       AIR SEA DIR/SP/G                  HT/PER
                 (UTC) (F)     (DEG/KT/KT) (MB)    (MI)  (FT/S)
BOSTON BUOY      0550   63 67  190/  8/ 10 1025.9R         2/ 6
BUZZARDS BAY     0500          160/  7/  8 1026.4R
NANTUCKET SOUND  0550   62 70  150/  6/  8 1025.7R         1/ 6
MASS BAY-STELLWA 0504   64 64  190/ 10/ 10   N/A    1 7/8  2/ 5
ISLE OF SHOALS   0600   62     220/ 11/ 12 1025.3R
S OF BLOCK IS    0508      67                N/A           3/ 8
$$

......................KEY.........................
  SKY/WX - SKY CONDITION/PRESENT WEATHER
  TMP    - TEMPERATURE IN FAHRENHEIT
  DWPT   - DEWPOINT IN FAHRENHEIT
  RH     - RELATIVE HUMIDITY IN PERCENT
  WIND   - DIRECTION AND SPEED IN MPH
  PRES   - MEAN SEA LEVEL PRESSURE IN INCHES OF HG
  WCI    - WIND CHILL INDEX
  VSB    - VISIBILITY IN MILES
  HX     - HEAT INDEX
  TC     - TEMPERATURE IN CELSIUS
  VRB    - VARIABLE WIND DIRECTION
  N/A    - NOT AVAILABLE


USA.gov is the U.S. government's official web portal to all federal, state and local government web resources and services.